Погода в Мосоро

Бразилия     5°11′10″S   37°20′27″W
темп.,
°C
ветер,
м/с
пор.,
м/с
влажн.,
%
обл.,
%
осадки,
мм/ч
давл.,
гПа
погр.,
м
7 августа, вс
вс700:00+24вюв713785 0.0 1013464
03:00+22вюв5128162 0.0 1013427
06:00+22ююв378642 0.0 1014256
09:00+28юв675893 0.0 10151252
12:00+32вюв553999 0.0 10132290
15:00+32всв874495 0.0 10111726
18:00+27в510618 0.0 1012456
21:00+24вюв612715 0.0 1014564
8 августа, пн
пн800:00+23вюв5107250 0.0 1014455
03:00+22юв487421 0.0 1014262
06:00+21юв36764 0.0 1015153
09:00+28юв57465 0.0 10161142
12:00+32юв45305 0.0 10141893
15:00+33вюв452826 0.0 10102293
18:00+27всв47545 0.0 1012146
21:00+25вюв713665 0.0 1014476
9 августа, вт
вт900:00+23вюв613735 0.0 1014386
03:00+22юв37755 0.0 1014218
06:00+21ююв22780 0.0 101544
09:00+28юв56485 0.0 10171055
12:00+33ююв45337 0.0 10142051
15:00+34вюв44274 0.0 10112701
18:00+28всв48495 0.0 1013225
21:00+25вюв713620 0.0 1016443
10 августа, ср
ср1000:00+23вюв6137113 0.0 1015397
03:00+22юв367632 0.0 1014186
06:00+21юв258234 0.0 1016150
09:00+28юв45507 0.0 10171069
12:00+33юв34315 0.0 10152224
15:00+33св55325 0.0 10122423
18:00+26св6106758 0.0 1014363
21:00+25в510685 0.0 1016371
11 августа, чт
чт1100:00+23в410785 0.0 1015324
03:00+22вюв37875 0.0 1015206
06:00+22вюв310875 0.0 1016323
09:00+29вюв57555 0.0 10171108
12:00+33вюв453716 0.0 10142270
15:00+31св87505 0.0 10121358
18:00+27св712708 0.0 1013567
21:00+25в5117425 0.0 1015496